map of ZQW home
Great Circle Mapper logo
ZQW - Airport
Location
City:  Zweibrücken, Rhineland-Palatinate, Germany
ICAO / IATA:EDRZ / ZQW

Details
Type:Airport (Flugplatz, Airfield)
Use:Public/Civil
Latitude:49°12'34"N (49.209525)
Longitude:7°24'02"E (7.400647)
Datum:WGS 1984
Elevation:1133 ft (345 m)
Runways:1
Longest:9677 × 148 ft (2950 × 45 m), paved

Time
Time Zone:UTC+1 (DST+2)
Local Time:

Weather
METAR:EDRZ 231850Z VRB02KT CAVOK 07/06 Q1024
TAF:EDRZ 231700Z 2318/2418 VRB03KT 9999 BKN030
BECMG 2323/2402 BKN010
TEMPO 2403/2409 2500 BR BKN003
BECMG 2408/2411 10005KT SCT020

Related Locations
Nearby:
Farthest:CHT: 12016 mi / 19338 km
Waitangi [Tuuta], Chatham Islands, NZ

Find:

   beyond  
but within

Other Information
Maps:
NOTAMs:
Links:
Sources:

  
flag of Germany
flag of Rhineland-Palatinate
  

Sectional Chart

Flight Planning
at skyvector.com

Satellite Image

Google Maps Satellite View

 

Copyright © 2004-2014 Karl L. Swartz. All rights reserved.
The Great Circle Mapper name and logo are trademarks of the Great Circle Mapper.
All other trademarks mentioned herein belong to their respective owners.
Please see credits for attibutions and further copyright information.

  Follow gcmap on Facebook Follow gcmap on Twitter

hCard Microformat

Geo Microformat